星链-5376 (STARLINK-5376 )

导读

STARLINK-5376是美国太空探索技术公司发射的星链系列卫星,于2023年3月29日发射入轨,属于星链互联网星座组网卫星。它为全球提供高速低延迟互联网服务,尤其覆盖偏远地区。该卫星配备了可展开太阳能电池板与自主离轨系统,降低太空垃圾风险,推进全球网络普及,同时推动低轨卫星通信技术发展。

基本信息
目录编号:
56142
目录名称:
STARLINK-5376
国际标识:
2023-046BC
轨道中心:
EARTH
卫星名称:
星链-5376
卫星全名:
星链-5376 (STARLINK-5376 )
卫星状态:
在轨 (已飞行1176 天)
发射日期:
2023-03-29 UTC
国别 :
美国 (US)
星等 :
--
轨道信息
数据来源 国际轨道数据
星历时间: 2026-06-17T09:49:28+0800
7小时前
查看轨道信息
半长轴: 6861.199km
偏心率: 0.0001116
轨道倾角: 43.003°
近地点辐角 274.993°
升交点赤经 305.395°
平近点角 85.079°
近地点: 482.296km
远地点: 483.828km
周期: 94.267分钟
每日圈数: 15.275759
详细信息
固有亮度:
5
最大亮度:
2.5
卫星平台:
Starlink v1.5
覆盖范围:
全球
运营商:
太空探索技术公司
运营商所在国:
美国
制造商(研发单位):
太空探索技术公司
制造商所在国:
美国
使用方式:
暂无
卫星简介
星链(Starlink)计划是由太空探索技术公司(SpaceX)提出的一个巨型低轨卫星互联网星座项目,计划在2019年至2024年间在太空搭建由约1.2万颗卫星组成的“星链”网络,其中1584颗将部署在地球上空550千米处的近地轨道,并从2020年开始工作。该卫星仍在工作。
2D轨道图
3D轨道图
轨道高度分析图
轨道倾角分析图
轨道综合分析图
查看轨道综合分析图